Regional Weather Roundup
Issued by NWS Memphis, TN

Home | Current Version | Previous Version | Text Only | Print | Product List | Glossary On
Versions: 1 2 3 4 5 6 7 8 9 10 11 12 13 14 15 16 17 18 19 20 21 22 23 24 25 26 27 28 29 30 31 32 33 34 35 36 37 38 39 40 41 42 43 44 45 46 47 48 49 50
000
ASUS44 KMEG 291210
RWRMEG
MEMPHIS CWA HOURLY WEATHER ROUNDUP
NATIONAL WEATHER SERVICE MEMPHIS TN
700 AM CDT THU JUN 29 2017

...WEST TENNESSEE...

CITY           SKY/WX    TMP DP  RH WIND       PRES   REMARKS
MEMPHIS INTL   MOSUNNY   73  71  93 S12       30.01S
6HR MIN TEMP:  72; 6HR MAX TEMP:  77;

NWS MEMPHIS      N/A     72 N/A N/A MISG        N/A
JACKSON        SUNNY     72  70  93 S7        30.04R
6HR MIN TEMP:  70; 6HR MAX TEMP:  74;

COVINGTON      SUNNY     73  70  88 S6        30.01S
SOMERVILLE     SUNNY     72  70  94 S7        30.02R
BOLIVAR        SUNNY     72  70  94 SE5       30.03S
LEXINGTON      SUNNY     72  68  88 S3        30.06R
SELMER         MOSUNNY   72  68  88 VRB6G13   30.05S
SAVANNAH       SUNNY     73  70  88 S6        30.05S
UNION CITY     SUNNY     72  68  88 S7        30.01F
HUNTINGDON     PTSUNNY   72  70  94 S6        30.04R


...EASTERN ARKANSAS...

CITY           SKY/WX    TMP DP  RH WIND       PRES   REMARKS
JONESBORO      SUNNY     73  71  93 S8        29.98S
6HR MIN TEMP:  70; 6HR MAX TEMP:  74;

WEST MEMPHIS   SUNNY     73  72  96 S9        29.99S
6HR MIN TEMP:  72; 6HR MAX TEMP:  75;

BATESVILLE     CLOUDY    73  68  83 S3        29.97S
6HR MIN TEMP:  70; 6HR MAX TEMP:  73;

WALNUT RIDGE   SUNNY     73  68  83 S7        29.98S
6HR MIN TEMP:  72; 6HR MAX TEMP:  73;

SEARCY         CLOUDY    74  73  97 S12       29.98S
6HR MIN TEMP:  68; 6HR MAX TEMP:  74;

STUTTGART      SUNNY     73  61  64 S6        29.98S
6HR MIN TEMP:  73; 6HR MAX TEMP:  77;

PINE BLUFF     MOSUNNY   72  70  93 SE7       29.97S
6HR MIN TEMP:  71; 6HR MAX TEMP:  74;

MONTICELLO     PTSUNNY   73  70  90 SE5       29.97F
6HR MIN TEMP:  72; 6HR MAX TEMP:  75;



...NORTH MISSISSIPPI...

CITY           SKY/WX    TMP DP  RH WIND       PRES   REMARKS
TUPELO         CLOUDY    73  69  87 SE6       30.05R
6HR MIN TEMP:  70; 6HR MAX TEMP:  73;

OXFORD         MOSUNNY   70  68  94 SE7       30.05S
BATESVILLE     SUNNY     71  69  95 CALM      30.03R
6HR MIN TEMP:  68; 6HR MAX TEMP:  74;

OLIVE BRANCH   MOSUNNY  N/A N/A N/A S5        30.01
TUNICA           N/A     70  70 100 S8        30.00F
CLARKSDALE       N/A     73  73 100 SE5       30.00S
CORINTH        CLOUDY    72  68  88 SE5       30.05S
GREENWOOD      PTSUNNY   75  71  87 SE6       30.01R
6HR MIN TEMP:  73; 6HR MAX TEMP:  75;

COLUMBUS       PTSUNNY   74  74 100 SE5       30.05R
6HR MIN TEMP:  72; 6HR MAX TEMP:  74;

GOLDEN TRIANGL CLOUDY    73  66  78 SE9       30.01S


...SOUTHEAST MISSOURI...

CITY           SKY/WX    TMP DP  RH WIND       PRES   REMARKS
KENNETT        SUNNY     73  72  94 S6        29.98S FOG
MALDEN         SUNNY     72  68  88 S5        30.01R
WEST PLAINS    SUNNY     68  65  90 CALM      30.00S
6HR MIN TEMP:  67; 6HR MAX TEMP:  74;

POPLAR BLUFF   MOSUNNY   71  69  93 S5        29.98F
6HR MIN TEMP:  67; 6HR MAX TEMP:  73;

CAPE GIRARDEAU MOSUNNY   71  66  84 S7        29.99F
6HR MIN TEMP:  66; 6HR MAX TEMP:  73;



...NORTHWEST ALABAMA...

CITY           SKY/WX    TMP DP  RH WIND       PRES   REMARKS
MUSCLE SHOALS  SUNNY     71  67  87 SE3       30.09R
6HR MIN TEMP:  67; 6HR MAX TEMP:  72;



...MIDDLE TENNESSEE...

CITY           SKY/WX    TMP DP  RH WIND       PRES   REMARKS
NASHVILLE      PTSUNNY   73  65  75 SE3       30.09R
6HR MIN TEMP:  70; 6HR MAX TEMP:  73;

CLARKSVILLE    SUNNY     70  64  81 S5        30.06S
6HR MIN TEMP:  65; 6HR MAX TEMP:  72;

COLUMBIA       SUNNY     72  70  94 CALM      30.06S


...WESTERN KENTUCKY...

CITY           SKY/WX    TMP DP  RH WIND       PRES   REMARKS
PADUCAH        PTSUNNY   72  65  78 S6        30.01R
6HR MIN TEMP:  71; 6HR MAX TEMP:  74;

FORT CAMPBELL  SUNNY     72  65  78 S8        30.05S
6HR MIN TEMP:  71; 6HR MAX TEMP:  74;



...CENTRAL ARKANSAS...

CITY           SKY/WX    TMP DP  RH WIND       PRES   REMARKS
LITTLE ROCK    PTSUNNY   72  72 100 S9        29.96S
6HR MIN TEMP:  71; 6HR MAX TEMP:  73;



SKY/WX REPORTED AS FAIR MEANS FEW OR NO CLOUDS BELOW
12 THOUSAND FEET.




USA.gov is the U.S. government's official web portal to all federal, state and local government web resources and services.